UAL948 KSFO-EGLL

Flight info

Callsign UAL948
Flight time N/A
Altitude 35000
Route SNTNA2 ORRCA DCT FMG DCT DBS/N0482F370 DCT BIL DCT MOT DCT OTLUR DCT FERNO DCT CHARN/N0487F390 DCT HELMO DCT MCKEE DCT PRAWN DCT AVUTI/M084F390 DCT 59N050W 60N040W 60N030W 59N020W DCT GOMUP/N0479F390 DCT GINGA DCT KELLY L10 WAL UY53 NUGRA
Aircraft B772/H-SDE2E3FGHIJ5LORVWXY/LB1D1

Departure

Time 2026-04-30 22:56
Airport San Francisco International Airport (KSFO)

Arrival

Time N/A
Airport London Heathrow Airport (EGLL)
Time Latitude Longitude Altitude Speed Heading
2026-04-30 22:30 37.61708 -122.39099 26 ft 0 kts 44°
2026-04-30 22:43 37.61686 -122.39132 24 ft 4 kts 51°
2026-04-30 22:44 37.61662 -122.39190 25 ft 4 kts 91°
2026-04-30 22:45 37.61702 -122.39301 25 ft 4 kts 118°
2026-04-30 22:45 37.61722 -122.39347 24 ft 0 kts 118°
2026-04-30 22:48 37.61706 -122.39335 25 ft 5 kts 173°
2026-04-30 22:49 37.61765 -122.39473 26 ft 10 kts 316°
2026-04-30 22:49 37.62006 -122.39364 26 ft 16 kts 48°
2026-04-30 22:50 37.62334 -122.39003 26 ft 16 kts 72°
2026-04-30 22:51 37.62241 -122.38686 26 ft 31 kts 118°
2026-04-30 22:51 37.62049 -122.38224 26 ft 29 kts 118°
2026-04-30 22:52 37.61953 -122.38003 26 ft 29 kts 125°
2026-04-30 22:52 37.61779 -122.37704 26 ft 23 kts 111°
2026-04-30 22:53 37.61625 -122.37288 26 ft 26 kts 117°
2026-04-30 22:53 37.61441 -122.36890 26 ft 26 kts 133°
2026-04-30 22:53 37.61333 -122.36704 26 ft 26 kts 117°
2026-04-30 22:54 37.61170 -122.36315 26 ft 19 kts 118°
2026-04-30 22:55 37.61118 -122.35896 26 ft 15 kts 29°
2026-04-30 22:55 37.61220 -122.35960 26 ft 18 kts 298°
2026-04-30 22:56 37.61757 -122.37239 27 ft 142 kts 298°
2026-04-30 22:56 37.63303 -122.40889 1799 ft 163 kts 297°
2026-04-30 22:57 37.64471 -122.43643 2495 ft 199 kts 297°
2026-04-30 22:57 37.65964 -122.47092 2846 ft 248 kts 298°
2026-04-30 22:58 37.67720 -122.50958 3837 ft 261 kts 311°
2026-04-30 22:59 37.72856 -122.52562 5477 ft 268 kts 358°
2026-04-30 22:59 37.78546 -122.52706 7098 ft 275 kts